Location: Ferchesar
(52.6477°N, 12.4298°E)
Time: 22:50:05
(UTC+01:00)

TIGRISAT - Pass Details

Date: 27 October 2021
Orbit: 603 x 689 km, 97.7° (Epoch: 30 November)

Event Time Altitude Azimuth Distance (km) Brightness Sun altitude
Rises 21:09:14 0° 9° (N) 2,974 ? -30.5°
Reaches altitude 10° 21:11:34 10° 2° (N) 2,044 ? -30.9°
Enters shadow 21:11:36 10° 2° (N) 2,031 ? -30.9°
Exits shadow 21:21:15 - 219° (SW) 2,579 ? -32.2°
Sets 21:21:59 0° 217° (SW) 2,875 ? -32.3°
